Location: Drocourt
(49.0571°N, 1.7669°E)
Time: 12:09:10
(UTC+00:00)

Cosmos 1340 - Pass Details

Date: 09 February 2023
Orbit: 479 x 484 km, 81.2° (Epoch: 21 March)

Event Time Altitude Azimuth Distance (km) Brightness Sun altitude
Rises 17:44:18 0° 350° (N) 2,559 6.2 -7.3°
Reaches altitude 10° 17:46:25 10° 353° (N) 1,676 5.2 -7.6°
Maximum altitude 17:50:05 69° 77° (ENE) 525 2.5 -8.2°
Drops below altitude 10° 17:53:43 10° 161° (SSE) 1,668 5.2 -8.8°
Sets 17:55:50 0° 164° (SSE) 2,545 6.2 -9.1°
